This is the latest recevied weather packets stored in our database for station/object KH6DH-13. If no packets are shown the sender has not sent any weather packets the latest 10 day(s).
| Time | Temp. | Humidity | Pressure | Rain* | Wind** | Luminosity | Snow |
|---|---|---|---|---|---|---|---|
| 1788252499 | 26.11° C | - | - | 0 mm | 1.79 m/s, 250° | - | - |
| 1788251898 | 25.56° C | - | - | 0 mm | 0.89 m/s, 309° | - | - |
| 1788251297 | 26.11° C | - | - | 0 mm | 1.79 m/s, 4° | - | - |
| 1788250696 | 26.11° C | - | - | 0 mm | 0.89 m/s, 329° | - | - |
| 1788250095 | 26.11° C | - | - | 0 mm | 1.34 m/s, 359° | - | - |
| 1788249491 | 26.11° C | - | - | 0 mm | 2.24 m/s, 23° | - | - |
| 1788248888 | 26.11° C | - | - | 0 mm | 2.24 m/s, 338° | - | - |
| 1788248283 | 26.11° C | - | - | 0 mm | 2.68 m/s, 31° | - | - |
| 1788247679 | 26.11° C | - | - | 0 mm | 0.89 m/s, 62° | - | - |
| 1788247072 | 26.67° C | - | - | 0 mm | 1.34 m/s, 65° | - | - |
| 1788246471 | 26.67° C | - | - | 0 mm | 2.68 m/s, 44° | - | - |
| 1788245867 | 26.67° C | - | - | 0 mm | 1.79 m/s, 359° | - | - |
| 1788245263 | 26.67° C | - | - | 0 mm | 1.34 m/s, 298° | - | - |
| 1788244659 | 26.67° C | - | - | 0 mm | 1.79 m/s, 243° | - | - |
| 1788244055 | 26.67° C | - | - | 0 mm | 1.34 m/s, 315° | - | - |
| 1788243452 | 26.67° C | - | - | 0 mm | 1.34 m/s, 200° | - | - |
| 1788242848 | 26.67° C | - | - | 0 mm | 2.24 m/s, 46° | - | - |
| 1788242243 | 26.67° C | - | - | 0 mm | 1.79 m/s, 62° | - | - |
| 1788241639 | 27.22° C | - | - | 0 mm | 1.34 m/s, 37° | - | - |
| 1788241036 | 27.22° C | - | - | 0 mm | 1.79 m/s, 30° | - | - |
| 1788240433 | 26.67° C | - | - | 0 mm | 2.24 m/s, 226° | - | - |
| 1788239832 | 27.22° C | - | - | 0 mm | 3.13 m/s, 113° | - | - |
| 1788239231 | 27.22° C | - | - | 0 mm | 1.34 m/s, 53° | - | - |
| 1788238629 | 27.22° C | - | - | 0 mm | 0.45 m/s, 336° | - | - |
| 1788238028 | 27.78° C | - | - | 0 mm | 2.24 m/s, 83° | - | - |
* Rain latest hour (hover to see other rain measurements)
** Current wind speed in m/s (hover to see current wind gust speed)